Anula, Australia

6:23 PM ACST on September 25, 2017 (GMT +0930)
Anula

Weather History for 94120 - May, 2013

Change the Weather History Date:

Thursday, May 23, 2013

  Actual Average Record
Temperature  
Mean Temperature 82 °F -  
Max Temperature 89 °F 88 °F - ()
Min Temperature 75 °F 69 °F - ()
Cooling Degree Days 17    
Growing Degree Days 32 (Base 50)    
Moisture  
Dew Point 74 °F    
Average Humidity 80    
Maximum Humidity 100    
Minimum Humidity 47    
Precipitation  
Precipitation 0.16 in 0.01 in - ()
Sea Level Pressure  
Sea Level Pressure 29.86 in    
Wind  
Wind Speed 8 mph ()    
Max Wind Speed 17 mph    
Max Gust Speed -    
Visibility 7.7 miles    
Events Rain , Thunderstorm    
T = Trace of Precipitation, MM = Missing Value Source: Averaged Metar Reports

Daily Weather History Graph

Daily Weather History Graph

Search for Another Location

Airport or City:

Trip Planner

Search our weather history database for the weather conditions in past years. The results will help you decide how hot, cold, wet, or windy it might be!

Date:

Astronomy

May. 23, 2013 Rise Set
Actual Time 6:58 AM ACST 6:27 PM ACST
Civil Twilight 6:35 AM ACST 6:50 PM ACST
Nautical Twilight 6:09 AM ACST 7:16 PM ACST
Astronomical Twilight 5:44 AM ACST 7:42 PM ACST
Moon 4:44 PM ACST (5/23) 4:40 AM ACST (5/23)
Length of Visible Light 12h 14m
Length of Day
11h 29m
Waxing Gibbous, 94% of the Moon is Illuminated
May 23
Waxing Gibbous
May 25
Full
Jun 1
Last Quarter
Jun 9
New
Jun 17
First Quarter

Hourly Weather History & Observations

Time (ACST) Temp. Heat Index Dew Point Humidity Pressure Visibility Wind Dir Wind Speed Gust Speed Precip Events Conditions
12:00 AM 80 °F - 76 °F 85% 29.87 in 19 mi SSE 8.1 mph - - Thunderstorm Thunderstorm
12:00 AM 80.6 °F 87.1 °F 77.0 °F 89% 29.86 in 6.2 mi SSE 8.1 mph - N/A   Mostly Cloudy
12:30 AM 79 °F - 76 °F 89% 29.86 in - South 9.2 mph - -  
12:30 AM 78.8 °F - 77.0 °F 94% 29.86 in - South 9.2 mph - N/A   Clear
1:00 AM 78.8 °F - 75.2 °F 89% 29.86 in 6.2 mi South 8.1 mph - N/A   Mostly Cloudy
1:30 AM 78.8 °F - 75.2 °F 89% 29.86 in 6.2 mi South 8.1 mph - N/A   Mostly Cloudy
2:00 AM 78.8 °F - 75.2 °F 89% 29.83 in 6.2 mi SE 6.9 mph - N/A   Mostly Cloudy
2:30 AM 78.8 °F - 75.2 °F 89% 29.83 in 6.2 mi SSE 8.1 mph - N/A   Mostly Cloudy
3:00 AM 78 °F - 74 °F 85% 29.85 in 19 mi ESE 6.9 mph - -   Partly Cloudy
3:00 AM 78.8 °F - 75.2 °F 89% 29.83 in 6.2 mi ESE 6.9 mph - N/A   Mostly Cloudy
3:30 AM 78 °F - 74 °F 84% 29.85 in - SE 4.6 mph - -  
3:30 AM 78.8 °F - 73.4 °F 83% 29.83 in - SE 4.6 mph - N/A   Clear
4:00 AM 78.8 °F - 73.4 °F 83% 29.83 in 6.2 mi SE 4.6 mph - N/A   Mostly Cloudy
4:30 AM 77.0 °F - 75.2 °F 94% 29.83 in - South 6.9 mph - N/A   Clear
5:00 AM 78.8 °F - 75.2 °F 89% 29.86 in - SSE 8.1 mph - N/A   Clear
5:30 AM 77.0 °F - 75.2 °F 94% 29.83 in - ESE 4.6 mph - N/A   Clear
6:00 AM 77 °F - 75 °F 90% 29.85 in 19 mi ESE 3.5 mph - -   Scattered Clouds
6:00 AM 77.0 °F - 75.2 °F 94% 29.86 in - ESE 3.5 mph - N/A   Clear
6:30 AM 78 °F - 74 °F 86% 29.86 in - ESE 4.6 mph - -  
6:30 AM 78.8 °F - 75.2 °F 89% 29.86 in - ESE 4.6 mph - N/A   Unknown
7:00 AM 78.8 °F - 73.4 °F 83% 29.86 in 6.2 mi SE 6.9 mph - N/A   Mostly Cloudy
7:30 AM 78.8 °F - 73.4 °F 83% 29.89 in 6.2 mi ESE 9.2 mph - N/A   Mostly Cloudy
8:00 AM 78.8 °F - 73.4 °F 83% 29.89 in 6.2 mi SE 9.2 mph - N/A   Mostly Cloudy
8:30 AM 80.6 °F 85.4 °F 73.4 °F 79% 29.89 in 6.2 mi SE 8.1 mph - N/A   Scattered Clouds
9:00 AM 82 °F - 73 °F 67% 29.91 in 19 mi SE 8.1 mph - -   Partly Cloudy
9:00 AM 82.4 °F 88.2 °F 73.4 °F 74% 29.92 in 6.2 mi SE 8.1 mph - N/A   Mostly Cloudy
9:30 AM 83 °F - 72 °F 63% 29.91 in - SSE 10.4 mph - -  
9:30 AM 82.4 °F 88.2 °F 73.4 °F 74% 29.92 in 6.2 mi SSE 10.4 mph - N/A   Mostly Cloudy
10:00 AM 84.2 °F 89.6 °F 71.6 °F 66% 29.89 in 6.2 mi ESE 6.9 mph - N/A   Mostly Cloudy
10:30 AM 84.2 °F 90.9 °F 73.4 °F 70% 29.89 in 6.2 mi ENE 6.9 mph - N/A   Mostly Cloudy
11:00 AM 87.8 °F 93.8 °F 71.6 °F 58% 29.89 in 6.2 mi NE 3.5 mph - N/A   Mostly Cloudy
11:30 AM 87.8 °F 95.6 °F 73.4 °F 62% 29.86 in 6.2 mi NNE 5.8 mph - N/A   Mostly Cloudy
12:00 PM 89 °F - 72 °F 47% 29.87 in 19 mi North 8.1 mph - -   Partly Cloudy
12:00 PM 89.6 °F 96.2 °F 71.6 °F 55% 29.86 in 6.2 mi North 8.1 mph - N/A   Mostly Cloudy
12:30 PM 87 °F - 73 °F 56% 29.85 in - West 8.1 mph - -  
12:30 PM 86.0 °F 93.4 °F 73.4 °F 66% 29.86 in 6.2 mi West 8.1 mph - N/A   Mostly Cloudy
1:00 PM 87.8 °F 95.6 °F 73.4 °F 62% 29.83 in 6.2 mi WNW 9.2 mph - N/A   Mostly Cloudy
1:30 PM 86.0 °F 93.4 °F 73.4 °F 66% 29.83 in 6.2 mi NW 10.4 mph - N/A   Mostly Cloudy
2:00 PM 87.8 °F 95.6 °F 73.4 °F 62% 29.80 in 6.2 mi NNW 10.4 mph - N/A   Mostly Cloudy
2:30 PM 87.8 °F 95.6 °F 73.4 °F 62% 29.80 in 6.2 mi NNW 12.7 mph - N/A   Mostly Cloudy
3:00 PM 88 °F - 75 °F 57% 29.80 in 19 mi NNW 10.4 mph - -   Partly Cloudy
3:00 PM 87.8 °F 97.6 °F 75.2 °F 66% 29.80 in 6.2 mi NNW 10.4 mph - N/A   Mostly Cloudy
3:30 PM 88 °F - 75 °F 57% 29.80 in - North 12.7 mph - -  
3:30 PM 87.8 °F 97.6 °F 75.2 °F 66% 29.80 in 6.2 mi North 12.7 mph - N/A   Mostly Cloudy
4:00 PM 87.8 °F 95.6 °F 73.4 °F 62% 29.80 in 6.2 mi North 11.5 mph - N/A   Mostly Cloudy
4:30 PM 87.8 °F 95.6 °F 73.4 °F 62% 29.80 in 6.2 mi North 10.4 mph - N/A   Mostly Cloudy
5:00 PM 87.8 °F 97.6 °F 75.2 °F 66% 29.77 in 6.2 mi NNW 10.4 mph - N/A   Mostly Cloudy
5:30 PM 87.8 °F 97.6 °F 75.2 °F 66% 29.80 in 6.2 mi WNW 10.4 mph - N/A   Partly Cloudy
6:00 PM 86 °F - 75 °F 63% 29.81 in 19 mi WSW 11.5 mph - - Thunderstorm Thunderstorm
6:00 PM 86.0 °F 95.1 °F 75.2 °F 70% 29.80 in 6.2 mi WSW 11.5 mph - N/A   Mostly Cloudy
6:30 PM 82 °F - 74 °F 71% 29.83 in - South 13.8 mph - -  
6:30 PM 82.4 °F 88.2 °F 73.4 °F 74% 29.83 in 6.2 mi South 13.8 mph - N/A   Mostly Cloudy
6:47 PM 80.6 °F 86.2 °F 75.2 °F 84% 29.83 in 6.2 mi South 8.1 mph - N/A Rain Light Rain Showers
7:00 PM 78.8 °F - 75.2 °F 89% 29.83 in 5.6 mi SE 8.1 mph - N/A Rain Light Rain Showers
7:08 PM 78.8 °F - 75.2 °F 89% 29.86 in 6.2 mi ENE 9.2 mph - N/A Rain , Thunderstorm Light Thunderstorms and Rain
7:30 PM 77.0 °F - 73.4 °F 89% 29.86 in 6.2 mi ENE 10.4 mph - N/A Rain , Thunderstorm Light Thunderstorms and Rain
7:43 PM 77.0 °F - 75.2 °F 94% 29.86 in 3.7 mi ESE 8.1 mph - N/A Rain Rain Showers
8:00 PM 77.0 °F - 75.2 °F 94% 29.86 in 6.2 mi East 6.9 mph - N/A Rain Light Rain Showers
8:30 PM 77.0 °F - 75.2 °F 94% 29.89 in 6.2 mi SE 9.2 mph - N/A Rain Light Rain
8:49 PM 77.0 °F - 75.2 °F 94% 29.89 in 5.6 mi SSE 17.3 mph - N/A Rain Light Rain
9:00 PM 77 °F - 75 °F 91% 29.91 in 9 mi SSE 17.3 mph - - Rain , Thunderstorm Thunderstorms and Rain
9:00 PM 77.0 °F - 75.2 °F 94% 29.92 in 6.2 mi SSE 17.3 mph - N/A Rain Light Rain
9:30 PM 76 °F - 75 °F 96% 29.92 in - SSE 9.2 mph - -  
9:30 PM 77.0 °F - 75.2 °F 94% 29.92 in 6.2 mi SSE 9.2 mph - N/A Rain Light Rain
10:00 PM 75.2 °F - 73.4 °F 94% 29.92 in 6.2 mi ESE 12.7 mph - N/A Rain Light Rain
10:24 PM 75.2 °F - 75.2 °F 100% 29.92 in 3.7 mi ESE 9.2 mph - N/A Rain Rain
10:30 PM 75.2 °F - 75.2 °F 100% 29.89 in 3.7 mi ESE 9.2 mph - N/A Rain Rain
11:00 PM 75.2 °F - 75.2 °F 100% 29.89 in 3.7 mi SE 9.2 mph - N/A Rain Rain
11:18 PM 75.2 °F - 75.2 °F 100% 29.89 in 5.6 mi ESE 9.2 mph - N/A Rain Rain
11:30 PM 75.2 °F - 75.2 °F 100% 29.89 in 6.2 mi ESE 12.7 mph - N/A Rain Rain